GEFSSE_con_cape1000_216.txt.gz
Probability
3 6 32 42 48 48 52 48 52 48 42 35 29 32 29 35 35 32 32 39 35 42 42 48 55 55 65 68 71 58 65 65 68 74 71 68 74 71 71 77 77 68 81
0 16 35 45 42 42 39 32 42 39 35 32 26 32 26 26 32 32 35 39 42 39 32 35 32 35 45 48 52 55 52 58 58 61 65 61 77 81 74 77 71 68 81
13 19 29 39 35 32 26 19 23 26 29 29 29 35 32 32 35 32 32 42 39 39 32 35 32 32 32 42 42 48 48 48 55 55 48 29 48 77 71 74 77 77 77
16 19 26 29 23 29 19 23 19 23 23 29 29 32 32 35 32 32 35 39 35 32 32 32 26 23 32 32 39 42 45 48 48 32 10 10 29 61 68 71 65 74 65
13 19 23 29 19 16 13 19 13 19 23 26 26 26 26 29 29 32 32 29 26 26 29 35 29 29 29 35 39 35 39 39 32 6 0 6 19 55 61 61 61 68 71
16 16 13 23 16 16 16 19 19 16 19 29 29 23 23 23 32 35 29 29 32 29 29 32 29 29 26 26 35 32 39 26 6 3 0 0 16 52 52 52 55 55 58
13 10 10 19 13 16 23 26 23 19 19 23 23 23 23 23 29 29 29 29 32 29 29 26 19 19 16 26 32 35 35 16 3 0 0 0 16 42 52 52 48 48 48
6 6 10 16 16 13 16 26 23 23 16 19 23 23 19 19 13 26 23 23 19 19 23 19 16 13 23 26 32 29 26 13 6 0 0 3 26 29 32 35 35 42 42
6 6 6 10 6 13 13 16 16 19 13 16 10 10 16 19 19 19 19 19 19 16 23 19 19 26 19 13 23 23 16 13 3 3 6 10 16 16 16 23 29 26 29
3 3 3 0 0 3 6 16 16 19 13 6 10 10 10 6 6 6 6 13 13 16 13 16 13 13 19 16 10 13 13 6 0 0 3 10 16 19 19 23 19 19 16
0 0 0 0 0 0 0 3 10 6 6 6 3 6 0 0 0 0 3 6 10 13 13 19 10 6 6 6 6 13 0 0 0 0 3 13 16 13 16 16 13 16 10
0 0 0 0 0 0 0 0 0 0 0 0 0 0 0 0 0 0 3 3 10 10 10 6 6 6 0 0 0 0 0 0 0 0 3 10 16 16 19 16 13 16 10
0 0 0 0 0 0 0 0 0 0 0 0 0 0 0 0 0 0 0 0 3 0 0 3 0 0 0 0 0 0 0 0 0 0 3 10 10 13 19 19 16 19 10
0 0 0 0 0 0 0 0 0 0 0 0 0 0 0 0 0 0 0 0 0 0 0 0 0 0 0 0 0 0 0 0 0 0 3 10 10 13 13 13 10 16 13
0 0 0 0 0 0 0 0 0 0 0 0 0 0 0 0 0 0 0 0 0 0 0 0 0 0 0 0 0 0 0 0 0 0 0 3 6 10 10 13 16 10 6
0 0 0 0 0 0 0 0 0 0 0 0 0 0 0 0 0 0 0 0 0 0 0 0 0 0 0 0 0 0 0 0 0 0 0 0 6 10 10 10 10 6 6
0 0 0 0 0 0 0 0 0 0 0 0 0 0 0 0 0 0 0 0 0 0 0 0 0 0 0 0 0 0 0 0 0 0 0 0 0 3 3 6 6 6 3
0 0 0 0 0 0 0 0 0 0 0 0 0 0 0 0 0 0 0 0 0 0 0 0 0 0 0 0 0 0 0 0 0 0 0 0 0 3 3 3 3 6 6
0 0 0 0 0 0 0 0 0 0 0 0 0 0 0 0 0 0 0 0 0 0 0 0 0 0 0 0 0 0 0 0 0 0 0 0 0 0 0 0 3 3 3
0 0 0 0 0 0 0 0 0 0 0 0 0 0 0 0 0 0 0 0 0 0 0 0 0 0 0 0 0 0 0 0 0 0 0 0 0 0 0 0 0 0 3
0 0 0 0 0 0 0 0 0 0 0 0 0 0 0 0 0 0 0 0 0 0 0 0 0 0 0 0 0 0 0 0 0 0 0 0 0 0 0 0 0 0 0
3 0 0 0 0 0 0 0 0 0 0 0 0 0 0 0 0 0 0 0 0 0 0 0 0 0 0 0 0 0 0 0 0 0 0 0 0 0 0 0 0 0 0
3 3 0 0 0 0 0 0 0 0 0 0 0 0 0 0 0 0 0 0 0 0 0 0 0 0 0 0 0 0 0 0 0 0 0 0 0 0 0 0 0 0 0
3 3 3 0 0 0 0 0 0 0 0 0 0 0 0 0 0 0 0 0 0 0 0 0 0 0 0 0 0 0 0 0 0 0 0 0 0 0 0 0 0 0 0
0 3 3 3 0 0 0 0 0 0 0 0 0 0 0 0 0 0 0 0 0 0 0 0 0 0 0 0 0 0 0 0 0 0 0 0 0 0 0 0 0 0 0
0 3 3 3 0 0 0 0 0 0 0 0 0 0 0 0 0 0 0 0 0 0 0 0 0 0 0 0 0 0 0 0 0 0 0 0 0 0 0 0 0 0 0

GEFSSE_con_cape1000_222.txt.gz
Probability
6 13 35 35 42 39 45 42 45 32 32 32 29 35 42 39 39 35 39 42 39 45 45 48 45 48 52 58 61 61 58 68 68 74 71 74 74 71 68 68 74 77 77
6 13 35 39 35 39 32 32 26 29 29 32 29 32 35 39 35 42 39 35 35 32 39 32 35 39 48 55 48 52 52 55 55 58 61 71 68 71 77 68 81 77 84
6 19 29 32 32 29 26 23 29 32 29 32 32 32 32 35 32 35 39 32 29 26 26 26 29 39 42 42 39 42 39 45 35 35 45 45 65 71 68 77 81 81 84
6 19 19 26 29 23 19 19 23 19 26 29 32 32 29 29 29 29 32 29 26 26 29 26 23 29 32 29 29 29 29 35 29 26 35 35 48 68 68 68 68 71 68
10 16 26 26 19 16 16 13 16 19 29 26 26 29 32 32 32 29 35 32 23 23 26 23 19 23 29 29 29 32 32 26 16 23 42 48 58 58 58 65 65 65 68
6 16 19 19 16 13 13 10 10 23 23 29 26 23 29 35 35 35 26 29 26 23 19 23 19 19 23 23 29 29 23 19 16 23 29 45 48 52 52 55 58 52 52
13 16 16 19 16 16 16 13 13 19 29 29 29 29 29 29 29 26 32 26 26 19 10 19 19 23 19 19 13 23 13 19 13 26 23 26 42 45 45 48 55 52 48
6 10 6 19 19 19 16 16 16 23 16 23 29 29 26 26 23 23 23 16 13 13 6 13 16 10 19 16 16 16 10 10 13 10 16 23 26 32 32 39 32 39 39
10 13 13 19 16 16 16 13 13 19 16 16 16 16 16 13 10 10 13 16 10 13 6 13 13 10 16 13 13 13 10 13 6 10 3 19 19 16 19 23 23 29 32
10 13 10 10 6 10 16 16 13 19 16 10 13 10 10 10 10 10 6 16 13 16 6 6 13 10 13 10 6 13 10 6 10 10 10 13 16 16 19 23 23 16 19
6 6 6 6 6 6 6 0 6 0 3 3 6 3 6 3 3 6 0 10 13 10 10 6 10 3 6 6 10 10 3 10 10 10 10 10 10 13 13 16 13 13 13
6 3 6 10 6 3 0 3 3 0 0 0 0 0 3 0 0 0 0 10 6 6 6 6 6 6 3 6 3 3 10 6 6 6 10 6 10 16 16 16 16 19 16
6 3 3 10 3 6 6 3 3 3 6 0 0 0 3 0 0 0 0 3 3 6 10 6 6 3 3 3 3 3 3 3 6 3 6 3 10 16 16 16 19 19 16
10 6 10 3 3 3 3 0 0 0 3 0 0 0 0 0 0 0 0 3 6 6 10 6 6 3 3 3 3 3 3 3 3 3 3 3 6 13 13 16 13 13 13
10 10 10 10 3 3 3 3 0 0 0 0 0 0 0 0 0 0 0 3 3 6 3 0 0 3 0 3 0 0 3 3 3 3 0 0 0 3 13 13 13 13 10
6 6 10 10 3 3 3 3 0 0 0 0 0 0 0 0 0 0 3 3 3 0 0 0 0 0 0 0 0 0 0 0 0 0 0 0 0 3 6 10 10 10 10
6 3 3 6 3 0 0 3 0 0 0 0 0 0 0 0 0 0 3 0 0 0 0 0 0 0 0 0 0 0 0 0 0 0 0 0 0 0 3 3 3 6 6
10 6 6 6 3 0 0 0 0 0 0 0 0 3 0 0 0 0 0 0 0 0 0 0 3 0 0 0 0 0 0 0 0 0 0 0 0 0 0 3 3 3 3
13 6 6 6 6 0 0 0 0 0 0 0 0 0 0 0 0 0 0 0 0 0 0 0 3 0 0 0 0 0 0 0 0 0 0 0 0 0 0 3 0 0 0
6 6 6 6 6 6 3 0 0 0 3 0 0 0 0 0 0 0 0 0 0 3 3 6 3 0 0 0 0 0 0 0 0 0 0 0 0 0 0 0 0 0 3
3 6 6 6 6 6 6 0 0 3 3 0 0 0 0 0 0 0 0 0 0 3 3 3 0 0 0 0 0 0 0 0 0 0 0 0 0 0 0 0 0 0 0
0 6 3 6 6 6 6 3 0 3 0 3 0 0 0 0 0 0 0 0 3 6 3 3 3 0 0 0 0 0 0 0 0 0 0 0 0 0 0 0 0 0 0
0 0 3 3 6 6 6 3 3 0 0 0 0 0 0 0 0 0 0 0 3 3 6 10 3 0 3 0 0 0 0 0 0 0 0 0 0 3 0 0 0 0 0
0 0 0 3 3 6 3 3 3 3 3 0 0 0 3 3 0 0 0 0 0 3 6 3 0 0 0 3 0 0 0 0 0 0 0 0 0 0 0 0 0 0 0
0 0 0 0 0 3 3 3 3 3 3 3 0 3 3 3 3 3 0 0 0 0 0 3 0 3 3 3 3 0 0 0 0 0 0 0 0 0 0 0 0 0 0
3 3 3 3 3 3 6 3 3 3 6 6 6 3 3 3 3 3 3 3 0 0 0 0 0 0 0 3 0 0 0 0 0 0 0 0 0 0 0 0 0 0 0

GEFSSE_con_cape1000_228.txt.gz
Probability
29 29 35 45 35 39 35 39 35 35 29 39 32 39 35 42 35 39 39 35 35 39 45 55 55 58 58 65 65 61 58 52 61 65 81 77 74 77 77 74 77 77 81
26 26 35 42 35 29 23 26 29 32 29 26 29 29 23 32 35 32 29 26 35 32 29 35 48 45 35 32 52 48 42 39 42 48 74 68 71 74 77 77 77 74 74
26 23 35 42 32 26 19 19 26 29 29 29 29 29 23 29 26 29 29 29 26 23 29 32 32 32 26 26 26 26 26 35 42 48 61 42 45 68 77 77 74 74 84
23 29 26 29 19 19 19 23 29 26 19 23 32 29 26 26 26 29 29 26 26 19 26 32 29 29 26 26 26 16 19 23 52 61 32 39 39 61 71 71 74 74 74
26 26 26 26 19 16 16 19 19 26 19 19 29 29 32 32 26 29 29 26 26 29 23 26 29 29 26 26 26 26 23 23 45 32 19 39 39 65 68 61 68 71 68
19 16 23 23 19 19 13 16 19 19 23 26 26 26 35 32 32 32 26 23 23 19 23 26 26 23 19 16 19 16 13 23 19 10 16 26 23 65 61 65 65 58 55
16 16 13 19 19 23 19 19 19 23 23 29 29 26 26 26 26 23 19 16 10 10 10 23 23 3 3 10 6 16 23 35 10 10 10 16 19 55 48 65 58 55 58
16 16 19 19 23 19 13 19 16 19 23 19 19 19 19 16 16 16 13 10 6 6 10 10 6 0 3 6 6 6 23 13 10 10 10 13 23 23 32 48 45 48 39
16 16 16 13 16 16 16 16 16 16 16 16 16 16 16 13 10 10 10 3 0 3 3 3 6 3 3 3 6 16 19 19 6 6 10 13 23 23 23 23 26 35 29
13 10 10 6 6 3 6 16 16 13 13 13 6 10 10 13 10 10 10 6 3 3 6 0 6 3 6 6 10 16 19 10 6 6 10 16 23 23 19 19 23 19 19
10 10 10 10 6 3 3 0 13 10 3 3 6 10 3 3 0 6 10 10 3 0 3 3 3 6 13 10 6 13 10 0 0 0 0 13 19 16 19 16 13 23 23
3 3 3 10 6 3 3 3 3 0 0 0 0 0 0 0 0 0 3 13 6 0 0 3 13 10 6 0 0 6 0 0 0 0 3 16 19 16 16 13 16 23 16
6 6 6 3 3 3 3 3 3 3 0 0 0 0 0 0 0 0 0 3 0 0 0 6 3 0 0 0 0 0 0 0 0 0 6 13 16 16 16 23 19 16 16
10 6 10 6 3 3 3 3 3 3 3 0 0 0 0 0 0 0 0 0 0 0 0 0 0 0 0 0 0 0 0 0 0 0 0 13 13 13 13 16 16 19 16
13 10 3 10 3 3 3 3 0 3 0 0 0 0 0 0 0 0 0 0 0 0 0 0 0 0 0 0 0 0 0 0 0 0 0 6 6 6 13 16 13 13 13
10 13 10 6 6 3 3 3 3 0 0 0 0 0 0 0 0 0 3 3 3 0 0 0 0 0 0 0 0 0 0 0 0 0 0 0 10 6 6 6 6 6 6
6 10 3 3 0 0 3 3 3 3 0 0 0 0 0 0 0 3 3 0 0 0 0 0 0 0 0 0 0 0 0 0 0 0 0 0 0 3 6 6 6 6 6
6 6 3 3 3 0 0 3 3 3 3 3 0 0 0 0 0 0 0 0 0 0 0 0 0 0 0 0 0 0 0 0 0 0 0 0 0 0 3 6 6 6 6
6 6 3 3 3 0 0 0 0 0 0 0 0 3 0 0 0 0 0 0 0 0 0 0 0 0 0 0 0 0 0 0 0 0 0 0 0 0 0 0 6 6 6
3 6 3 3 6 3 3 0 0 0 0 0 0 0 0 0 0 0 0 0 0 0 0 0 0 0 0 0 0 0 0 0 0 0 0 0 0 0 0 0 0 0 6
3 3 3 3 6 6 3 6 3 3 0 0 0 0 0 0 0 0 0 0 0 0 0 0 0 0 0 0 0 0 0 0 0 0 0 0 0 0 0 0 0 0 0
3 3 6 3 3 6 6 6 6 3 6 0 3 0 0 0 0 0 0 0 0 0 0 0 0 0 0 0 0 0 0 0 0 0 0 0 0 0 0 0 0 0 0
3 3 3 3 3 3 6 6 3 3 3 3 3 0 0 0 0 0 0 0 0 0 0 0 0 0 0 0 0 0 0 0 0 0 0 0 0 0 0 0 0 0 0
3 3 3 3 3 3 3 6 3 3 3 3 3 6 3 3 3 3 3 3 0 0 0 0 0 0 0 0 0 0 0 0 0 0 0 0 0 0 0 0 0 0 0
3 6 3 6 3 3 3 3 10 6 6 6 6 6 6 3 3 3 3 3 3 3 0 0 0 0 0 0 0 0 0 0 0 0 0 0 0 0 0 0 0 0 0
3 3 3 3 3 3 3 6 3 3 6 6 6 6 3 3 0 0 0 0 0 3 3 3 0 0 0 0 0 0 0 0 0 0 0 0 0 0 0 0 0 0 0

GEFSSE_con_cape1000_234.txt.gz
Probability
6 19 48 52 48 48 45 42 45 45 45 45 45 45 45 42 42 39 42 42 45 52 58 61 48 48 48 48 55 58 58 58 55 58 55 58 61 74 77 77 84 77 77
13 32 48 48 42 42 39 42 42 42 45 42 39 42 39 39 39 42 32 35 39 45 42 39 42 42 32 35 39 45 39 48 45 52 61 55 58 68 68 74 81 71 77
19 32 42 39 39 35 35 32 32 32 39 39 39 35 39 35 35 35 32 35 35 39 42 39 35 32 32 29 29 32 42 48 45 48 42 23 35 61 58 68 74 74 77
19 26 26 39 32 29 32 29 32 35 39 32 35 32 29 29 35 32 32 32 35 32 32 35 35 32 32 29 29 29 32 32 42 42 3 13 19 58 71 74 74 71 74
13 16 23 32 32 26 29 26 29 29 32 32 35 32 26 29 29 32 32 29 32 32 26 23 29 19 26 23 19 26 29 32 19 6 3 3 13 55 58 61 71 68 71
16 23 23 29 32 29 29 23 19 26 23 29 29 29 26 26 23 29 26 26 26 19 16 19 23 16 19 16 16 16 26 23 6 3 3 6 10 52 58 55 61 55 71
13 16 19 29 29 26 26 19 26 23 26 26 26 23 23 29 23 19 19 19 23 16 16 16 16 19 13 16 16 16 16 19 3 3 10 10 16 52 58 65 65 61 65
10 16 16 26 29 19 19 23 23 29 26 29 29 23 23 23 19 19 19 19 13 10 13 13 13 16 10 10 10 13 16 13 3 3 6 6 19 35 32 42 58 52 52
10 6 6 10 13 26 26 23 23 19 19 23 19 16 16 19 13 16 10 16 13 13 13 10 6 6 6 6 13 13 16 13 0 0 6 6 23 26 29 32 48 42 45
6 3 6 3 3 3 10 23 26 23 16 19 13 13 13 16 13 10 10 10 6 3 0 6 6 6 10 13 13 13 13 6 0 3 6 10 19 19 29 29 32 35 29
6 3 3 3 0 0 0 3 6 10 10 13 10 16 6 3 3 3 10 10 10 6 0 3 3 10 13 16 13 10 6 0 0 0 6 13 16 23 16 16 19 23 16
6 6 6 0 0 0 0 0 0 0 3 3 3 3 0 0 0 0 6 19 13 10 6 10 10 10 3 0 0 0 0 0 0 0 3 19 16 19 19 19 19 23 23
6 3 3 0 0 0 0 0 0 0 0 0 0 0 0 0 0 0 0 0 0 0 0 0 0 0 0 0 0 0 0 0 0 0 0 19 13 13 16 16 16 13 10
6 3 6 0 0 0 0 0 0 0 0 0 0 0 0 0 0 0 0 0 0 0 0 0 0 0 0 0 0 0 0 0 0 0 0 10 13 16 13 16 13 10 10
3 0 3 3 0 0 0 0 0 0 0 0 0 0 0 0 0 0 0 0 0 0 0 0 0 0 0 0 0 0 0 0 0 0 0 13 10 6 13 13 10 10 13
0 0 0 0 0 0 0 0 0 0 0 0 0 0 0 0 0 0 0 0 0 0 0 0 0 0 0 0 0 0 0 0 0 0 0 0 6 10 13 13 10 10 10
0 0 0 0 0 0 0 0 0 0 0 0 0 0 0 0 0 0 0 0 0 0 0 0 0 0 0 0 0 0 0 0 0 0 0 0 0 6 13 6 10 3 6
3 0 0 0 0 0 0 0 0 0 0 0 0 0 0 0 0 0 0 0 0 0 0 0 0 0 0 0 0 0 0 0 0 0 0 0 0 0 0 10 6 10 3
3 3 0 0 0 0 0 0 0 0 0 0 0 0 0 0 0 0 0 0 0 0 0 0 0 0 0 0 0 0 0 0 0 0 0 0 0 0 0 0 10 6 6
6 3 3 0 0 0 0 0 0 0 0 0 0 0 0 0 0 0 0 0 0 0 0 0 0 0 0 0 0 0 0 0 0 0 0 0 0 0 0 0 0 0 3
3 3 0 0 0 0 0 0 0 0 0 0 0 0 0 0 0 0 0 0 0 0 0 0 0 0 0 0 0 0 0 0 0 0 0 0 0 0 0 0 0 0 0
0 0 0 0 0 0 0 0 0 0 0 0 0 0 0 0 0 0 0 0 0 0 0 0 0 0 0 0 0 0 0 0 0 0 0 0 0 0 0 0 0 0 0
0 0 0 0 0 0 0 0 0 0 0 0 0 0 0 0 0 0 0 0 0 0 0 0 0 0 0 0 0 0 0 0 0 0 0 0 0 0 0 0 0 0 0
3 0 0 0 0 0 0 0 0 0 0 0 0 0 0 0 0 0 0 0 0 0 0 0 0 0 0 0 0 0 0 0 0 0 0 0 0 0 0 0 0 0 0
0 0 0 0 0 0 0 0 0 0 0 0 0 0 0 0 0 0 0 0 0 0 0 0 0 0 0 0 0 0 0 0 0 0 0 0 0 0 0 0 0 0 0
0 0 0 0 0 0 0 0 0 0 0 0 0 0 0 0 0 0 0 0 0 0 0 0 0 0 0 0 0 0 0 0 0 0 0 0 0 0 0 0 0 0 0

GEFSSE_con_cape1000_240.txt.gz
Probability
0 3 32 35 32 39 39 45 42 42 45 45 45 42 42 39 45 48 48 52 52 58 58 48 52 39 48 52 52 65 61 55 45 55 65 65 71 74 81 81 71 74 84
0 13 32 39 39 32 32 39 42 42 35 39 42 45 42 35 42 39 39 39 42 39 45 48 45 42 35 32 42 48 48 55 55 48 55 52 65 71 77 74 74 65 81
10 16 26 39 35 26 26 29 35 39 35 39 35 39 39 39 32 35 29 35 42 39 35 45 42 35 39 35 39 39 48 45 48 42 39 19 32 68 77 77 81 77 71
13 13 19 32 29 32 32 32 29 29 26 29 35 32 35 32 32 29 26 32 35 35 35 35 35 32 32 32 35 35 35 39 32 32 6 13 26 68 77 74 77 81 74
13 16 23 35 29 23 29 29 26 19 26 26 29 29 29 26 29 23 26 26 32 32 26 32 32 32 35 35 35 32 32 32 29 3 3 3 16 52 68 74 71 71 74
13 16 16 29 23 16 23 23 26 16 19 23 13 26 29 23 16 16 16 23 26 23 23 32 29 32 32 32 19 23 29 29 6 0 3 3 13 45 45 55 65 68 68
10 19 16 19 19 19 23 16 23 23 19 16 16 16 16 19 16 19 19 19 16 16 19 23 29 23 19 19 23 16 23 13 0 0 3 3 26 48 48 52 58 58 65
6 13 16 13 19 19 19 16 19 26 16 19 19 16 13 10 13 19 19 16 16 16 16 16 23 19 16 13 16 19 13 6 0 0 0 3 23 35 32 39 48 58 68
3 3 3 3 3 13 13 23 10 13 13 13 16 13 6 6 13 13 16 19 16 10 10 10 16 10 10 13 16 13 13 3 0 0 3 6 23 26 26 35 42 45 48
3 3 3 0 0 0 0 13 16 16 16 13 16 6 6 3 10 6 6 6 6 6 6 6 6 13 13 13 16 13 10 3 0 0 3 6 29 29 29 29 29 32 32
3 3 0 0 0 0 0 6 6 6 6 6 3 3 3 3 0 6 6 6 6 6 6 6 6 6 3 3 6 6 0 0 0 3 3 16 26 26 26 19 13 26 26
3 3 3 0 0 0 0 0 3 3 3 3 3 3 0 0 0 0 6 6 10 10 10 10 3 3 3 3 3 0 0 0 0 3 3 19 19 23 16 19 26 23 16
3 3 3 0 0 0 0 0 0 0 0 0 0 0 0 0 0 0 0 3 3 3 0 3 0 0 0 0 0 0 0 0 0 0 3 23 19 16 16 13 13 16 16
3 3 3 0 0 0 0 0 0 0 0 0 0 0 0 0 0 0 0 0 0 0 0 0 0 0 0 0 0 0 0 0 0 0 0 6 10 10 10 6 10 10 10
3 3 3 0 0 0 0 0 0 0 0 0 0 0 0 0 0 0 0 0 0 0 0 0 0 0 0 0 0 0 0 0 0 0 0 3 10 10 10 6 10 10 3
3 3 3 3 0 0 0 0 0 0 0 0 0 0 0 0 0 0 0 0 0 0 0 0 0 0 0 0 0 0 0 0 0 0 0 0 6 13 6 6 6 6 3
0 3 3 3 0 0 0 0 0 0 0 0 0 0 0 0 0 0 0 0 0 0 0 0 0 0 0 0 0 0 0 0 0 0 0 0 0 0 6 3 3 6 0
0 0 3 3 0 0 0 0 0 0 0 0 0 0 0 0 0 0 0 0 0 0 0 0 0 0 0 0 0 0 0 0 0 0 0 0 0 0 0 3 3 3 0
0 0 6 3 0 0 0 0 0 0 0 0 0 0 0 0 0 0 0 0 0 0 0 0 0 0 0 0 0 0 0 0 0 0 0 0 0 0 0 0 0 6 0
0 0 0 0 0 0 0 0 0 0 0 0 0 0 0 0 0 0 0 0 0 0 0 0 0 0 0 0 0 0 0 0 0 0 0 0 0 0 0 0 0 0 3
0 0 0 0 0 0 0 0 0 0 0 0 0 0 0 0 0 0 0 0 0 0 0 0 0 0 0 0 0 0 0 0 0 0 0 0 0 0 0 0 0 0 0
0 0 3 0 0 0 0 0 0 0 0 0 0 0 0 0 0 0 0 0 0 0 0 0 0 0 0 0 0 0 0 0 0 0 0 0 0 0 0 0 0 0 0
0 0 0 3 0 0 0 0 0 0 0 0 0 0 0 0 0 0 0 0 0 0 0 0 0 0 0 0 0 0 0 0 0 0 0 0 0 0 0 0 0 0 0
0 0 0 0 0 0 0 0 0 0 0 0 0 0 0 0 0 0 0 0 0 0 0 0 0 0 0 0 0 0 0 0 0 0 0 0 0 0 0 0 0 0 0
0 0 0 0 0 0 0 0 0 0 0 0 0 0 0 0 0 0 0 0 0 0 0 0 0 0 0 0 0 0 0 0 0 0 0 0 0 0 0 0 0 0 0
0 0 0 0 0 0 0 0 0 0 0 0 0 0 0 0 0 0 0 0 0 0 0 0 0 0 0 0 0 0 0 0 0 0 0 0 0 0 0 0 0 0 0

GEFSSE_con_cape1000_246.txt.gz
Probability
6 13 32 29 26 32 29 35 39 39 39 42 45 45 48 52 52 48 42 52 48 52 52 55 52 61 61 55 55 52 61 68 65 65 71 65 74 71 68 68 71 77 74
3 10 32 32 29 29 29 35 42 39 39 39 45 39 39 42 48 42 45 45 45 42 45 42 39 42 39 45 45 45 45 48 52 52 55 65 65 68 68 68 77 74 61
6 6 26 32 26 23 29 32 42 39 39 39 42 39 39 32 35 35 45 45 42 35 39 39 32 35 42 39 42 42 35 32 35 39 48 58 61 65 74 74 71 74 65
10 13 19 26 32 23 26 32 29 35 39 39 32 32 35 35 29 29 39 32 35 32 39 42 32 29 32 42 39 42 45 39 35 29 39 48 55 65 74 81 74 71 71
10 10 16 32 23 26 23 26 23 26 29 32 29 29 29 19 29 29 29 35 29 29 29 39 39 32 35 39 39 35 32 35 32 29 35 48 61 61 68 81 81 74 74
13 10 19 32 19 13 23 26 19 23 19 23 19 23 19 16 16 19 23 32 32 32 32 32 26 23 32 35 35 26 23 23 23 26 32 42 48 52 45 52 65 71 71
3 6 10 26 19 23 23 23 19 19 16 16 16 16 13 13 13 19 23 23 23 26 29 23 26 26 23 16 16 19 13 19 23 23 29 29 32 35 35 39 48 61 61
3 3 10 16 13 19 16 19 19 23 16 13 13 13 16 19 16 19 16 16 26 19 26 19 16 19 19 13 16 13 6 6 6 10 23 19 29 26 32 35 42 55 48
3 3 10 10 0 13 10 6 13 10 10 6 3 3 3 3 6 10 10 6 16 16 16 19 13 10 6 13 13 16 3 10 6 10 6 16 19 26 35 32 35 42 45
3 6 10 3 0 0 10 6 3 6 13 10 3 3 3 3 6 3 6 6 6 10 13 10 13 13 10 16 16 6 3 6 3 10 10 10 19 26 32 32 35 39 35
3 3 3 3 3 10 3 6 10 6 3 3 3 3 3 0 0 3 3 6 6 6 3 3 3 6 6 6 3 6 3 3 0 3 10 16 23 26 26 23 23 29 23
10 10 10 3 10 0 0 10 6 3 6 6 6 3 3 3 3 0 0 6 3 3 3 6 3 3 3 3 3 3 6 3 6 3 6 19 19 29 26 23 23 26 19
10 10 10 13 3 0 3 6 6 3 3 6 3 0 3 3 3 0 6 3 3 3 3 0 3 3 3 6 6 3 3 6 6 6 6 23 16 16 23 23 23 23 16
10 10 10 10 10 6 3 6 10 3 3 3 3 0 0 3 3 3 10 6 6 6 6 6 6 0 0 0 0 3 3 3 3 6 6 3 10 10 13 10 16 13 13
10 10 13 6 6 6 6 13 6 0 3 3 3 0 0 3 3 3 6 10 3 3 3 3 0 0 0 0 0 0 0 0 0 0 0 0 6 6 13 13 6 6 10
10 10 13 13 6 6 3 3 6 0 0 3 3 0 0 0 0 0 0 3 0 3 3 0 0 0 0 0 0 0 0 0 0 0 0 0 3 0 3 3 10 6 6
13 13 13 13 6 6 6 3 3 0 0 0 0 0 0 0 0 0 0 0 0 3 0 0 0 0 0 0 0 0 0 0 0 0 0 0 0 0 0 3 3 3 6
10 10 13 10 6 6 10 3 3 0 0 0 0 0 0 0 0 0 0 0 0 0 0 0 0 3 0 0 0 0 0 0 0 0 0 0 0 0 0 3 3 3 0
6 10 10 10 10 10 6 13 6 0 3 3 0 0 0 0 0 0 6 0 3 0 0 0 0 0 0 0 0 0 0 0 0 0 0 0 0 0 0 0 3 0 0
10 6 10 10 13 10 10 6 6 6 6 10 10 0 0 0 0 0 3 0 0 0 0 0 0 0 0 0 0 0 0 0 0 0 0 0 0 0 0 0 0 0 0
13 10 10 10 13 13 13 10 10 10 6 6 6 0 0 0 0 0 0 0 0 0 0 0 0 0 0 0 0 0 0 0 0 0 0 0 0 0 0 0 0 0 0
10 10 10 10 10 13 13 13 6 13 10 10 0 0 0 0 0 0 0 0 3 3 0 0 0 0 0 0 0 0 0 0 0 0 0 0 0 0 0 0 0 0 0
13 13 13 6 6 13 13 10 6 10 10 6 0 0 0 0 0 3 3 3 3 0 0 0 0 0 0 0 0 0 0 0 0 0 0 0 0 0 0 0 0 0 0
10 10 13 10 10 13 10 10 6 10 6 6 3 0 0 0 0 3 0 0 0 0 0 0 0 3 3 0 0 0 0 0 0 0 0 0 0 0 0 0 0 0 0
6 10 13 13 16 13 10 13 10 10 6 6 3 3 0 0 0 0 0 0 0 0 0 0 0 3 3 3 0 0 0 0 0 0 0 0 0 0 0 0 0 0 0
10 13 13 16 16 16 10 13 13 13 6 3 3 3 3 0 0 0 0 0 0 0 0 0 0 3 3 3 0 0 0 0 0 0 0 0 0 0 0 0 0 0 0

GEFSSE_con_cape1000_252.txt.gz
Probability
39 26 45 42 42 35 42 39 39 35 39 42 48 52 52 48 48 45 48 48 42 45 48 48 48 45 48 45 42 52 58 52 55 55 58 68 71 71 71 71 77 71 77
32 19 45 42 42 32 32 35 35 35 32 32 42 48 48 48 52 48 39 39 39 39 39 39 39 39 39 52 52 48 45 52 58 58 61 61 74 74 74 71 74 81 77
19 19 29 32 29 29 29 26 32 32 32 35 32 32 35 39 32 32 32 32 32 39 45 42 45 45 45 45 45 42 45 39 35 58 65 48 77 81 81 74 74 77 77
19 16 19 29 32 35 39 29 29 29 32 29 29 29 32 29 29 23 23 26 35 32 35 35 39 35 39 35 35 35 35 42 42 48 39 35 45 77 87 81 71 71 68
16 16 19 23 23 29 26 26 26 23 23 23 26 26 29 32 32 29 23 23 26 26 32 26 39 32 39 35 32 26 35 45 42 35 16 23 19 61 65 77 81 74 71
16 19 19 29 23 16 19 23 23 26 16 16 19 16 23 16 16 26 23 26 29 26 23 23 32 29 26 29 19 29 23 35 35 13 16 19 23 48 48 58 61 71 74
16 23 19 26 23 19 23 23 23 23 19 10 10 13 19 19 19 19 19 23 26 23 23 16 19 23 19 23 16 16 26 39 6 10 6 13 16 39 32 39 48 58 68
13 19 23 23 23 26 26 26 19 23 16 0 0 10 10 16 16 23 23 16 19 19 16 10 13 10 19 16 23 10 16 23 3 3 3 6 19 32 35 39 42 42 55
13 16 16 10 16 19 19 16 16 13 13 10 3 10 10 10 6 13 16 16 16 13 10 6 6 13 16 19 13 10 13 23 3 0 3 10 29 23 26 29 29 39 32
10 13 16 10 6 6 10 13 16 13 10 6 10 6 10 13 10 13 6 13 13 13 6 6 13 23 19 16 13 13 13 0 0 3 3 13 35 29 29 23 35 35 29
10 10 13 16 3 6 3 3 10 16 10 3 3 3 3 0 0 3 3 3 6 6 3 3 10 13 13 16 16 19 6 3 0 0 3 16 35 26 23 26 29 32 23
10 10 10 10 6 6 0 0 0 0 3 3 0 0 0 0 0 3 3 13 6 3 3 3 6 13 10 0 0 16 0 0 0 3 0 26 19 26 26 23 19 23 29
6 10 10 10 10 0 3 3 3 3 3 3 0 0 0 0 0 0 0 0 3 3 0 3 3 3 3 0 0 3 0 0 0 0 3 23 19 19 23 23 19 16 19
3 10 10 10 10 6 3 0 6 3 3 0 0 0 0 0 0 0 0 0 0 0 0 0 3 3 0 0 0 0 0 0 0 0 0 19 16 23 19 19 19 10 13
6 10 6 10 10 10 6 6 0 3 3 0 0 0 0 0 0 0 0 0 0 0 0 0 0 0 0 0 0 0 0 0 0 0 0 6 6 10 16 10 6 10 6
3 3 10 6 10 6 6 6 6 0 0 0 0 0 0 0 0 0 0 0 0 0 0 0 0 0 0 0 0 0 0 0 0 0 0 0 10 6 13 13 13 13 6
0 3 10 10 10 6 3 0 3 3 3 3 0 0 0 0 0 0 0 0 0 0 0 0 0 0 0 0 0 0 0 0 0 0 0 0 0 3 6 10 10 6 13
0 3 3 10 10 10 6 0 0 0 0 0 0 0 0 0 0 0 0 0 0 0 0 0 0 0 0 0 0 0 0 0 0 0 0 0 0 0 3 13 13 10 3
3 3 10 13 10 10 3 6 0 0 0 0 0 0 0 0 0 0 0 0 0 0 0 0 0 0 0 0 0 0 0 0 0 0 0 0 0 0 0 3 3 10 10
0 3 3 10 6 10 3 3 3 0 0 0 0 0 0 0 0 0 0 0 0 0 0 0 0 0 0 0 0 0 0 0 0 0 0 0 0 0 0 0 0 0 3
0 0 6 10 6 6 6 10 6 10 6 3 3 3 0 0 0 0 0 0 0 0 0 0 0 0 0 0 0 0 0 0 0 0 0 0 0 0 0 0 0 0 0
3 0 3 6 6 10 13 13 10 10 10 13 10 6 0 3 3 0 0 0 0 0 0 0 0 0 0 0 0 0 0 0 0 0 0 0 0 0 0 0 0 0 0
3 0 0 3 10 10 13 13 13 10 10 10 6 6 6 0 6 6 3 0 3 0 0 0 0 0 0 0 0 0 0 0 0 0 0 0 0 0 0 0 0 0 0
3 3 3 0 6 6 6 13 13 13 6 6 3 10 13 10 3 3 0 0 0 0 0 0 0 0 0 0 0 0 0 0 0 0 0 0 0 0 0 0 0 0 0
3 3 3 3 0 6 6 6 10 10 10 10 3 3 3 6 6 3 0 0 0 0 0 0 0 0 0 0 0 0 0 0 0 0 0 0 0 0 0 0 0 0 0
3 3 3 3 6 3 3 10 6 6 6 3 6 10 10 3 3 3 0 0 0 0 0 0 0 0 0 0 0 0 0 0 0 0 0 0 0 0 0 0 0 0 0

GEFSSE_con_cape1000_258.txt.gz
Probability
3 19 48 52 48 42 48 42 52 48 45 55 58 55 52 52 52 48 45 48 48 45 52 58 55 55 45 45 48 52 52 58 65 61 58 61 65 68 71 71 61 61 77
3 32 42 39 42 45 42 45 48 48 52 48 52 52 48 52 45 48 45 52 48 48 48 48 52 48 48 42 42 55 55 61 58 68 65 55 65 65 68 74 71 77 81
10 26 35 39 32 39 42 45 35 45 45 45 42 42 42 42 45 45 42 42 39 39 39 39 42 42 42 45 45 42 45 48 52 52 58 23 52 71 65 74 81 71 71
13 13 26 42 35 39 42 42 39 42 42 45 42 42 39 39 39 45 45 35 39 29 32 29 32 35 39 42 42 45 48 45 45 32 6 13 13 68 81 71 65 71 68
10 13 32 39 32 42 42 39 39 35 39 39 35 39 39 35 32 35 32 39 29 26 26 29 26 29 32 35 39 35 42 32 26 16 3 6 10 58 68 81 68 65 68
10 13 32 42 42 39 39 32 29 26 35 35 39 32 39 32 29 29 32 32 23 26 26 23 23 23 26 29 32 29 32 26 6 0 3 6 6 42 61 61 65 58 61
10 16 26 39 35 32 39 39 32 32 29 26 26 23 29 26 23 19 29 26 16 19 19 19 16 16 13 19 26 23 13 10 0 3 6 6 10 32 42 48 48 55 48
10 13 26 32 32 32 35 35 32 16 26 23 16 16 19 23 23 19 26 16 16 16 16 16 10 13 16 19 23 23 13 10 0 0 3 6 23 32 39 35 39 48 48
10 16 13 23 23 35 32 29 23 16 13 10 10 13 13 16 19 13 13 10 13 19 13 13 13 16 13 16 19 13 19 3 0 0 6 10 32 35 35 32 32 39 42
10 13 10 6 6 10 16 29 23 13 16 13 13 10 13 13 13 13 6 6 6 6 10 10 13 16 16 19 13 16 16 3 0 0 6 16 29 32 35 39 32 29 32
6 3 6 3 0 0 0 10 13 13 19 13 10 6 10 3 3 3 6 10 13 16 19 16 10 13 10 13 13 16 3 0 0 0 3 23 32 35 32 32 29 35 29
6 3 0 0 0 0 0 0 0 0 0 0 3 0 0 0 3 3 3 6 10 10 16 10 19 10 6 0 0 3 0 0 0 0 0 26 29 26 32 23 26 29 23
3 6 0 0 0 0 0 0 0 0 0 0 0 0 0 0 0 0 0 0 3 6 6 3 3 0 0 0 0 0 0 0 0 0 3 19 16 16 26 23 23 19 19
0 0 0 0 0 0 0 0 0 0 0 0 0 0 0 0 0 0 0 0 0 0 0 0 0 0 0 0 0 0 0 0 0 0 6 23 19 23 23 23 23 13 19
3 0 0 0 0 0 0 0 0 0 0 0 0 0 0 0 0 0 0 0 0 0 0 0 0 0 0 0 0 0 0 0 0 0 3 19 23 19 16 13 13 10 10
3 0 0 0 0 0 0 0 0 0 0 0 0 0 0 0 0 0 0 0 0 0 0 0 0 0 0 0 0 0 0 0 0 0 0 3 16 16 19 13 13 13 10
3 3 3 3 0 0 0 0 0 0 0 0 0 0 0 0 0 0 0 0 0 0 0 0 0 0 0 0 0 0 0 0 0 0 0 0 0 10 13 13 13 10 10
3 3 6 6 3 0 0 0 0 0 0 0 0 0 0 0 0 0 0 0 0 0 0 0 0 0 0 0 0 0 0 0 0 0 0 0 0 0 0 13 16 16 16
3 3 6 6 3 0 0 0 0 0 0 0 0 0 0 0 0 0 0 0 0 0 0 0 0 0 0 0 0 0 0 0 0 0 0 0 0 0 0 6 13 16 13
3 0 0 3 0 0 0 0 0 0 0 0 0 0 0 0 0 0 0 0 0 0 0 0 0 0 0 0 0 0 0 0 0 0 0 0 0 0 0 0 0 0 10
3 0 0 0 0 0 0 0 0 0 0 0 0 0 0 0 0 0 0 0 0 0 0 0 0 0 0 0 0 0 0 0 0 0 0 0 0 0 0 0 0 0 0
0 0 0 0 0 0 0 0 0 0 0 0 0 0 0 0 0 0 0 0 0 0 0 0 0 0 0 0 0 0 0 0 0 0 0 0 0 0 0 0 0 0 0
0 3 3 0 0 0 0 0 0 0 0 0 0 0 0 0 0 0 0 0 0 0 0 0 0 0 0 0 0 0 0 0 0 0 0 0 0 0 0 0 0 0 0
0 3 3 0 0 0 0 0 0 0 0 0 0 0 0 0 0 0 0 0 0 0 0 0 0 0 0 0 0 0 0 0 0 0 0 0 0 0 0 0 0 0 0
0 0 0 0 0 0 0 0 0 0 0 0 0 0 0 0 0 0 0 0 0 0 0 0 0 0 0 0 0 0 0 0 0 0 0 0 0 0 0 0 0 0 0
0 0 0 0 0 0 0 0 0 0 0 0 0 0 0 0 0 0 0 0 0 0 0 0 0 0 0 0 0 0 0 0 0 0 0 0 0 0 0 0 0 0 0

GEFSSE_con_cape1000_264.txt.gz
Probability
0 6 32 35 35 45 45 45 45 48 45 45 48 48 52 48 45 45 39 42 45 42 52 48 52 45 48 55 55 55 58 52 55 58 61 65 74 74 71 74 68 68 81
0 16 35 32 35 39 45 48 42 45 55 45 45 52 45 42 48 42 39 45 42 42 42 45 45 45 52 55 58 52 52 65 58 58 61 52 61 68 58 61 58 65 71
6 26 35 35 32 39 45 45 45 35 42 48 45 39 42 45 48 48 42 42 45 39 39 42 39 45 45 52 55 55 58 55 45 45 48 16 35 52 58 52 65 68 74
13 16 26 32 32 39 39 42 35 32 35 42 45 32 32 39 39 35 42 35 39 39 35 35 39 35 35 48 61 48 48 48 42 26 6 10 23 52 61 61 68 65 71
10 13 29 42 32 32 26 39 32 35 39 39 35 32 32 35 32 29 29 35 35 35 32 32 35 32 29 29 42 35 42 29 32 10 6 3 6 48 61 65 74 71 68
6 10 32 39 32 26 26 26 32 29 29 32 29 32 32 29 29 29 26 35 35 32 35 35 26 26 29 29 26 35 39 35 10 3 3 6 13 39 52 55 58 55 55
3 13 32 29 26 26 26 29 26 16 26 26 23 29 26 29 23 29 29 35 29 23 23 29 29 23 26 26 35 32 26 23 6 3 6 3 10 52 52 45 52 58 55
6 10 19 26 26 29 26 26 19 16 23 26 26 29 26 23 19 23 23 19 19 16 19 23 26 32 32 35 35 23 23 13 6 6 3 3 16 35 48 55 52 48 42
6 6 6 10 16 26 32 16 13 16 16 16 16 13 16 19 16 16 19 16 19 23 19 13 16 16 26 26 23 19 16 10 3 6 10 10 26 26 35 48 52 52 45
6 6 3 3 3 0 6 16 16 16 13 6 10 13 13 13 13 13 13 23 23 23 26 23 19 19 26 19 16 16 16 3 0 6 6 19 26 23 35 42 42 42 42
3 3 3 3 3 0 3 3 3 3 3 6 6 10 3 3 3 6 10 16 23 16 19 16 19 19 13 13 10 6 0 0 0 3 6 29 26 23 29 45 42 45 42
6 3 0 0 0 0 3 0 3 0 0 0 3 0 0 0 0 3 6 10 10 10 13 10 13 3 3 3 0 0 0 0 0 3 10 29 23 26 32 32 32 32 26
3 3 0 0 0 0 0 0 0 0 0 0 0 0 0 0 0 0 0 0 0 3 3 0 0 0 0 0 0 0 0 0 0 0 3 23 26 23 26 29 29 23 19
0 0 0 0 0 0 0 0 0 0 0 0 0 0 0 0 0 0 0 0 0 0 0 0 0 0 0 0 0 0 0 0 0 0 3 13 16 26 35 29 26 16 13
3 0 0 0 0 0 0 0 0 0 0 0 0 0 0 0 0 0 0 0 0 0 0 0 0 0 0 0 0 0 0 0 0 0 3 3 10 16 16 16 23 16 13
3 3 3 0 0 0 0 0 0 0 0 0 0 0 0 0 0 0 0 0 0 0 0 0 0 0 0 0 0 0 0 0 0 0 0 0 0 13 10 13 13 13 13
3 3 0 0 0 0 0 0 0 0 0 0 0 0 0 0 0 0 0 0 0 0 0 0 0 0 0 0 0 0 0 0 0 0 0 0 0 3 10 10 6 13 13
3 0 0 3 0 0 0 0 0 0 0 0 0 0 0 0 0 0 0 0 0 0 0 0 0 0 0 0 0 0 0 0 0 0 0 0 0 0 0 16 10 13 10
3 3 3 3 0 0 0 0 0 0 0 0 0 0 0 0 0 0 0 0 0 0 0 0 0 0 0 0 0 0 0 0 0 0 0 0 0 0 0 0 6 13 10
0 3 3 3 0 0 0 0 0 0 0 0 0 0 0 0 0 0 0 0 0 0 0 0 0 0 0 0 0 0 0 0 0 0 0 0 0 0 0 0 0 0 3
0 0 3 3 0 0 0 0 0 0 0 0 0 0 0 0 0 0 0 0 0 0 0 0 0 0 0 0 0 0 0 0 0 0 0 0 0 0 0 0 0 0 0
0 0 0 0 0 0 0 0 0 0 0 0 0 0 0 0 0 0 0 0 0 0 0 0 0 0 0 0 0 0 0 0 0 0 0 0 0 0 0 0 0 0 0
0 0 0 0 0 0 0 0 0 0 0 0 0 0 0 0 0 0 0 0 0 0 0 0 0 0 0 0 0 0 0 0 0 0 0 0 0 0 0 0 0 0 0
0 0 0 0 0 0 0 0 0 0 0 0 0 0 0 0 0 0 0 0 0 0 0 0 0 0 0 0 0 0 0 0 0 0 0 0 0 0 0 0 0 0 0
0 0 0 0 0 0 0 0 0 0 0 0 0 0 0 0 0 0 0 0 0 0 0 0 0 0 0 0 0 0 0 0 0 0 0 0 0 0 0 0 0 0 0
0 0 0 0 0 0 0 0 0 0 0 0 0 0 0 0 0 0 0 0 0 0 0 0 0 0 0 0 0 0 0 0 0 0 0 0 0 0 0 0 0 0 0

GEFSSE_con_cape1000_270.txt.gz
Probability
13 16 32 29 29 32 42 45 42 42 45 45 42 45 45 42 39 45 35 39 39 42 42 39 45 52 61 61 55 58 58 58 65 68 68 65 68 65 58 61 61 68 77
10 16 32 32 32 29 39 45 45 35 39 42 39 42 42 48 45 39 35 39 45 45 42 35 45 45 58 58 52 52 48 58 48 55 52 61 61 61 55 52 61 77 74
10 16 26 29 29 35 42 42 42 39 42 39 29 29 32 45 42 42 45 32 35 39 42 42 45 48 48 55 58 55 45 42 45 48 55 48 52 55 52 42 58 65 61
6 10 16 35 39 42 39 39 35 32 39 35 19 26 29 35 32 35 42 35 32 35 35 35 35 45 45 55 45 45 45 29 35 35 35 32 35 48 55 58 58 61 58
6 6 19 29 39 35 35 35 35 23 23 23 29 32 39 32 26 23 29 32 35 32 29 35 29 26 39 42 45 39 29 23 19 16 19 39 48 52 58 61 65 61 55
6 10 19 35 29 29 29 26 23 26 23 26 26 29 32 32 26 29 29 29 29 29 26 29 26 23 32 32 23 26 26 19 16 13 19 23 48 52 55 55 55 55 58
6 10 16 16 26 23 23 29 19 23 26 23 29 32 32 32 35 29 32 29 23 29 29 29 29 16 23 19 23 26 19 23 10 10 23 26 52 55 48 58 55 55 68
6 10 10 19 19 23 19 16 23 19 16 23 26 32 35 26 26 23 23 23 19 23 23 23 29 19 16 19 16 19 16 19 10 13 16 19 29 35 32 39 52 55 48
10 6 10 10 10 13 19 10 10 13 13 13 13 19 19 23 23 23 26 23 23 23 23 29 32 23 19 13 16 16 13 16 10 10 10 23 26 23 35 35 42 45 48
10 13 13 10 10 10 13 13 13 10 10 10 10 16 13 13 13 26 26 19 23 23 19 19 19 23 19 16 16 10 6 3 10 19 23 19 26 29 29 45 48 42 45
13 16 13 13 10 10 10 6 10 13 6 6 6 10 10 10 6 10 10 19 16 13 16 16 10 6 10 6 6 0 3 3 6 16 19 23 29 29 32 39 42 42 45
10 10 16 13 13 10 3 6 6 3 6 6 6 6 6 3 3 3 0 6 13 10 10 6 6 3 6 0 0 0 0 0 3 6 16 26 29 26 32 35 39 35 39
3 13 10 10 10 10 10 6 6 3 3 3 0 0 3 3 3 0 0 0 6 3 3 0 0 0 0 0 0 0 0 0 3 6 10 19 26 29 32 35 29 32 26
3 0 6 6 10 10 10 6 6 3 3 0 3 0 0 0 0 0 0 3 3 3 6 0 0 0 0 0 0 0 0 3 0 3 13 13 19 16 19 23 13 23 19
3 6 6 6 10 10 6 6 6 3 0 0 0 0 0 0 0 0 3 3 3 0 0 0 0 0 0 0 0 0 0 0 3 3 0 3 3 6 16 19 16 16 19
0 6 3 6 10 10 6 6 6 6 3 3 0 0 0 0 3 3 3 3 3 0 0 0 0 3 3 3 0 0 0 0 0 0 0 0 3 6 10 6 10 6 10
0 0 6 10 10 6 6 3 6 3 3 3 3 3 0 0 0 3 3 3 0 0 0 0 0 0 3 3 0 0 0 0 0 0 0 0 0 3 6 6 10 6 3
0 0 6 3 10 6 6 6 10 6 6 3 6 3 3 3 0 3 3 0 0 0 0 0 0 0 0 3 3 3 3 3 0 0 0 0 0 0 0 3 10 10 3
3 3 3 3 3 3 6 3 3 6 10 6 3 10 3 3 0 3 3 0 0 0 0 0 0 0 0 3 3 3 3 3 3 0 0 0 0 0 3 3 6 13 3
3 3 6 6 6 6 3 3 3 3 3 6 6 10 6 6 6 3 3 0 0 0 0 0 0 3 3 0 3 3 3 3 0 0 0 0 0 0 0 0 0 3 3
0 3 6 6 6 6 6 3 10 3 0 3 6 3 6 6 6 3 3 0 0 0 0 0 0 0 0 0 0 3 0 0 0 0 0 0 0 0 0 0 0 3 3
0 3 3 3 3 6 6 6 6 6 6 6 3 0 6 6 6 3 6 0 0 3 0 0 0 3 0 0 0 0 0 0 0 0 0 0 0 0 0 0 0 0 0
0 0 0 0 3 3 3 3 3 3 3 3 3 3 6 6 10 10 6 0 0 0 0 0 0 0 0 0 0 0 0 0 0 0 0 0 0 0 0 0 0 0 0
0 0 0 3 0 3 3 3 3 3 3 3 3 6 6 6 6 10 6 3 0 0 0 0 0 0 0 0 0 3 0 0 0 0 0 0 0 0 0 0 0 0 0
0 0 0 3 3 3 3 3 3 3 6 6 6 13 10 6 6 0 6 3 0 0 0 0 0 0 0 0 0 0 0 3 0 0 0 0 0 0 0 0 0 0 0
0 0 0 0 3 6 6 3 3 3 6 6 6 10 10 6 6 0 6 6 0 0 0 0 0 0 0 0 0 0 0 3 0 0 0 0 0 0 0 0 0 0 0

GEFSSE_con_cape1000_276.txt.gz
Probability
26 32 42 39 45 45 39 32 39 39 29 29 32 35 42 35 39 32 39 35 35 39 45 55 52 55 48 55 58 61 68 48 45 45 55 52 55 58 58 65 58 61 68
23 26 39 45 45 45 39 42 42 42 29 29 32 39 35 32 35 39 39 32 29 32 48 52 48 55 55 48 45 48 48 45 39 35 48 58 61 58 55 58 61 65 71
23 26 29 35 45 42 35 39 35 39 26 26 26 32 39 35 32 32 26 26 26 23 35 35 39 45 42 45 35 32 35 32 39 39 55 42 42 55 45 58 52 48 55
16 16 23 39 42 39 42 32 32 23 26 26 29 29 29 29 26 26 26 26 26 26 29 35 29 35 42 39 39 32 26 32 32 48 32 35 32 48 42 48 52 45 45
16 16 32 42 35 35 35 35 26 23 23 26 26 23 29 23 23 26 26 23 19 19 16 26 26 35 35 26 35 35 26 16 29 26 13 13 13 42 39 48 52 52 58
13 16 23 39 32 35 32 32 19 23 23 26 26 23 26 23 26 23 35 29 29 29 32 32 42 29 26 26 23 19 16 23 16 6 10 19 19 52 48 32 52 55 61
10 16 13 29 26 29 26 32 23 23 23 19 26 26 29 32 23 26 23 23 29 32 29 32 26 26 19 23 19 19 26 29 10 6 10 16 23 58 45 48 52 65 58
10 10 10 29 35 26 26 23 16 16 19 23 26 23 26 29 19 19 19 19 26 32 26 29 29 26 19 16 19 16 23 32 10 6 10 10 39 45 42 42 52 65 58
10 10 13 16 19 23 29 10 19 16 13 19 19 19 23 23 23 13 16 13 13 23 26 23 19 19 13 13 6 10 19 26 6 6 10 16 42 45 45 48 58 61 65
10 10 10 13 13 10 19 23 19 16 16 13 13 16 19 23 23 16 13 13 16 16 19 19 19 16 13 6 6 13 16 6 0 6 10 23 52 42 48 42 48 52 55
10 10 10 10 13 13 16 13 16 16 19 19 13 13 13 3 3 10 13 16 16 13 6 6 6 10 10 13 6 10 6 3 3 6 10 26 29 39 39 45 35 32 35
6 10 10 10 13 13 10 10 10 10 13 6 6 6 0 0 0 0 10 19 19 16 10 10 13 16 13 3 3 6 0 0 6 6 10 39 26 26 29 35 35 35 29
6 6 6 6 10 10 13 10 6 6 10 3 0 0 0 0 0 0 0 3 3 10 6 10 13 3 0 3 3 0 0 0 0 3 6 23 26 23 32 26 29 29 29
6 10 10 10 10 10 6 6 6 6 3 0 0 0 0 0 0 0 0 0 0 3 0 0 3 0 0 0 0 0 0 0 0 0 0 16 13 16 19 16 26 23 16
3 3 10 10 10 10 6 6 6 6 3 0 0 0 0 0 0 0 0 0 0 0 0 0 0 0 0 0 0 0 0 0 0 0 0 10 10 16 10 13 16 19 19
3 0 3 6 6 6 6 3 3 0 3 0 3 0 0 0 3 3 0 0 0 0 0 0 0 0 0 0 0 0 0 0 0 0 0 0 16 13 13 16 13 10 13
0 0 0 3 3 3 3 3 3 0 0 3 3 0 0 0 3 0 0 0 0 0 0 0 0 0 0 0 0 0 3 3 0 0 0 0 0 13 16 16 19 13 10
0 0 0 0 0 0 0 3 3 3 0 0 3 3 3 0 3 0 0 0 0 0 0 0 0 0 0 0 0 3 3 3 0 0 0 0 0 0 13 19 19 16 10
0 0 0 0 0 0 0 0 0 3 3 0 0 0 0 0 3 3 0 0 0 0 0 0 0 0 0 0 0 3 3 3 3 0 0 0 0 0 0 10 16 16 13
0 0 0 3 3 3 3 3 6 0 0 3 3 0 3 3 3 3 3 0 0 0 0 0 0 0 0 0 0 0 3 3 0 0 0 0 0 0 0 0 0 6 16
0 0 3 3 3 3 3 3 3 3 3 3 3 0 3 3 3 0 0 0 0 0 0 0 0 0 0 0 0 0 0 0 0 0 0 0 0 0 0 0 0 0 3
0 0 3 3 3 3 3 3 3 3 3 3 3 3 0 3 3 3 0 0 0 0 0 0 0 0 0 0 0 0 0 0 0 0 0 0 0 0 0 0 0 0 0
0 0 0 3 3 3 6 3 3 3 3 3 3 0 0 3 3 3 0 0 0 0 0 0 0 0 0 0 0 0 0 0 0 0 0 0 0 0 0 0 0 0 0
0 0 0 3 3 3 3 3 3 3 3 3 3 3 0 3 3 3 3 0 0 0 0 0 0 0 0 0 0 0 0 0 0 0 0 0 0 0 0 0 0 0 0
0 0 0 0 0 3 3 3 3 3 3 3 3 3 3 3 3 3 3 3 0 0 0 0 0 0 0 0 0 0 0 0 0 0 0 0 0 0 0 0 0 0 0
3 3 3 0 0 0 3 3 3 3 3 3 3 3 3 3 3 3 3 3 0 0 0 0 0 0 0 0 0 0 0 0 0 0 0 0 0 0 0 0 0 0 0

GEFSSE_con_cape1000_282.txt.gz
Probability
10 29 52 58 45 42 45 48 48 45 35 39 35 35 45 39 39 39 42 42 39 35 42 48 52 55 52 45 48 52 52 55 42 42 48 55 61 61 52 55 61 48 68
13 32 55 52 52 45 42 39 29 32 29 39 39 32 39 39 32 35 39 39 39 35 39 42 42 42 42 42 42 42 39 48 42 42 48 55 55 61 61 55 48 45 65
13 35 52 55 55 45 45 35 39 32 35 39 39 29 32 35 32 35 39 32 32 32 39 32 29 32 26 23 35 35 35 39 32 35 45 16 29 48 48 52 55 58 71
16 29 39 48 48 48 45 35 35 35 32 32 39 39 35 35 35 39 32 29 32 35 35 35 39 23 29 23 29 29 39 39 32 26 6 10 13 45 48 48 52 45 61
10 19 39 52 45 42 39 32 35 32 32 32 35 39 35 32 29 29 26 29 23 29 32 35 32 32 29 26 35 39 35 29 23 10 3 6 10 45 48 55 55 48 52
13 23 39 52 45 35 32 26 29 29 29 29 32 26 29 29 29 29 26 29 26 29 32 32 29 26 26 23 26 29 19 35 6 3 3 6 13 58 55 52 48 52 48
6 16 35 45 35 26 32 29 29 23 19 16 26 26 19 29 23 19 19 26 23 26 23 26 26 26 13 13 19 23 23 26 3 3 3 3 16 61 55 52 48 48 45
10 10 26 42 39 32 29 26 26 26 26 23 19 16 19 13 19 19 19 26 29 29 26 23 16 19 10 19 23 23 19 19 3 6 3 3 39 55 48 48 48 48 45
10 6 10 19 26 39 26 23 16 19 26 23 26 23 23 26 13 19 19 19 26 19 16 16 16 16 13 16 13 13 13 16 0 3 10 6 55 55 45 45 55 48 52
6 10 10 6 13 10 19 29 16 23 26 26 26 32 29 29 19 16 16 26 26 23 16 13 13 6 6 10 13 19 19 10 3 3 6 26 52 45 45 42 42 45 42
3 6 6 3 3 3 6 13 16 16 16 19 13 19 16 3 3 3 10 26 23 13 13 13 10 13 10 13 13 16 3 3 3 3 6 32 39 32 35 39 39 35 35
6 6 6 3 3 3 3 3 3 3 3 3 3 3 0 0 0 3 3 23 19 19 13 16 13 13 10 0 0 3 0 0 3 3 13 42 32 29 35 32 32 29 29
3 3 6 3 3 3 3 3 3 3 0 3 3 0 0 0 0 0 0 3 3 6 6 6 3 0 0 0 0 0 0 0 0 0 23 35 29 29 29 26 35 32 26
0 3 3 3 3 3 0 0 0 0 0 0 0 0 0 0 0 0 0 0 0 0 0 0 0 0 0 0 0 0 0 0 0 0 3 26 19 23 26 23 23 26 26
0 0 3 0 0 0 0 0 0 0 0 0 0 0 0 0 0 0 0 0 0 0 0 0 0 0 0 0 0 0 0 0 0 0 0 16 26 26 23 23 23 23 16
0 0 0 0 0 0 0 0 0 0 0 0 0 0 0 0 0 0 0 0 0 0 0 0 0 0 0 0 0 0 0 0 0 0 0 3 29 19 19 13 10 16 13
0 0 0 0 0 0 0 0 0 0 0 0 0 0 0 0 0 0 0 0 0 0 0 0 0 0 0 0 0 0 0 0 0 0 0 0 0 23 23 13 10 10 13
0 0 0 0 0 0 0 0 0 0 0 0 0 0 0 0 0 0 0 0 0 0 0 0 0 0 0 0 0 0 0 0 0 0 0 0 0 0 16 19 19 16 10
0 0 0 0 0 0 0 0 0 0 0 0 0 0 0 0 0 0 0 0 0 0 0 0 0 0 0 0 0 0 0 0 0 0 0 0 0 0 0 10 19 23 16
0 0 0 0 0 0 0 0 0 0 0 0 0 0 0 0 0 0 0 0 0 0 0 0 0 0 0 0 0 0 0 0 0 0 0 0 0 0 0 0 3 13 19
0 0 0 0 0 0 0 0 0 0 0 0 0 0 0 0 0 0 0 0 0 0 0 0 0 0 0 0 0 0 0 0 0 0 0 0 0 0 0 0 0 0 3
0 0 0 0 0 0 0 0 0 0 0 0 0 0 0 0 0 0 0 0 0 0 0 0 0 0 0 0 0 0 0 0 0 0 0 0 0 0 0 0 0 0 0
0 0 0 0 0 0 0 0 0 0 0 0 0 0 0 3 0 0 0 0 0 0 0 0 0 0 0 0 0 0 0 0 0 0 0 0 0 0 0 0 0 0 0
0 0 0 0 0 0 0 0 0 0 0 0 0 0 0 3 3 0 0 0 0 0 0 0 0 0 0 0 0 0 0 0 0 0 0 0 0 0 0 0 0 0 0
0 0 0 0 0 0 0 0 0 0 0 0 0 0 0 0 3 3 0 0 0 0 0 0 0 0 0 0 0 0 0 0 0 0 0 0 0 0 0 0 0 0 0
0 0 0 0 0 0 0 0 0 0 0 0 0 0 0 0 3 3 3 0 0 0 0 0 0 0 0 0 0 0 0 0 0 0 0 0 0 0 0 0 0 0 0

GEFSSE_con_cape1000_288.txt.gz
Probability
0 6 35 35 32 32 29 35 39 32 35 26 32 32 32 32 32 32 35 39 35 42 52 52 55 48 48 45 42 45 48 55 58 58 61 68 65 65 65 58 61 65 65
3 10 39 42 42 35 32 29 23 32 32 29 32 32 32 32 32 32 35 39 42 42 42 35 39 48 45 42 45 39 45 52 55 52 52 48 52 55 52 61 58 42 68
3 16 32 45 35 32 26 29 26 35 32 29 26 29 32 32 35 35 39 35 35 39 29 35 39 35 29 32 42 32 39 39 52 42 35 13 26 42 45 52 52 52 58
3 19 26 39 32 32 26 32 32 35 35 35 32 26 26 32 26 29 35 35 32 26 29 26 29 29 29 32 39 35 35 29 39 26 6 10 13 32 45 58 55 58 71
3 16 26 42 39 32 32 29 32 29 32 32 32 32 26 26 26 32 32 32 29 26 26 32 29 26 26 32 32 29 29 29 26 16 3 6 6 35 58 52 52 55 55
6 13 26 42 39 29 26 26 29 26 26 23 26 26 19 19 16 23 19 23 29 23 29 32 29 26 16 19 23 19 29 29 13 0 6 6 6 39 52 55 58 52 55
6 13 23 35 32 16 23 26 26 16 16 13 16 19 16 16 13 13 23 23 19 23 26 29 23 23 16 16 23 19 19 19 0 0 3 6 19 48 48 45 48 45 48
6 10 23 29 32 23 19 19 23 19 13 16 13 23 26 26 16 10 19 19 19 16 19 23 19 16 16 16 26 26 19 16 3 0 0 3 29 42 45 42 42 39 35
6 3 10 16 16 26 23 26 23 23 19 19 23 16 19 26 16 13 16 10 16 19 23 19 19 16 16 13 16 13 19 23 0 0 0 3 32 39 39 42 39 45 39
6 6 6 13 13 10 10 26 19 19 26 26 26 29 26 26 16 10 3 10 16 16 19 16 13 13 13 16 23 16 19 6 0 3 0 16 39 29 35 32 32 35 39
6 6 6 10 3 3 3 13 10 13 13 13 10 16 6 3 3 3 6 10 16 10 13 13 16 13 13 13 16 13 6 3 3 3 3 26 35 32 39 39 32 39 32
3 6 3 6 3 3 3 3 3 3 3 3 3 3 0 3 3 3 3 10 10 13 13 13 13 6 0 0 3 0 0 3 3 3 10 32 26 26 32 29 29 35 32
3 3 3 3 3 3 3 3 3 3 3 0 0 0 0 0 0 0 0 3 3 3 0 0 0 0 0 0 0 0 0 0 3 3 3 29 32 23 26 29 32 35 32
3 3 3 3 3 3 0 3 3 0 0 0 0 0 0 0 0 0 0 0 0 0 0 0 0 0 0 0 0 0 0 0 0 0 0 23 23 32 26 26 26 32 29
0 0 3 3 0 0 0 0 0 0 0 0 0 0 0 0 0 0 0 0 0 0 0 0 0 0 0 0 0 0 0 0 0 0 0 10 19 19 26 23 23 26 19
0 0 0 0 0 0 0 0 0 0 0 0 0 0 0 0 0 0 0 0 0 0 0 0 0 0 0 0 0 0 0 0 0 0 0 0 19 23 19 19 19 23 23
0 0 0 0 0 0 0 0 0 0 0 0 0 0 0 0 0 0 0 0 0 0 0 0 0 0 0 0 0 0 0 0 0 0 0 0 0 13 19 16 23 19 23
3 0 0 0 0 0 0 0 0 0 0 0 0 0 0 0 0 0 0 0 0 0 0 0 0 0 0 0 0 0 0 0 0 0 0 0 0 0 3 13 16 19 23
0 0 0 0 0 0 0 0 0 0 0 0 0 0 0 0 0 0 0 0 0 0 0 0 0 0 0 0 0 0 0 0 0 0 0 0 0 0 0 0 13 13 16
0 0 0 0 0 0 0 0 0 0 0 0 0 0 0 0 0 0 0 0 0 0 0 0 0 0 0 0 0 0 0 0 0 0 0 0 0 0 0 0 3 6 13
0 0 0 0 0 0 0 0 0 0 0 0 0 0 0 0 0 0 0 0 0 0 0 0 0 0 0 0 0 0 0 0 0 0 0 0 0 0 0 0 0 3 6
0 0 0 0 0 0 0 0 0 0 0 0 0 0 0 0 0 0 0 0 0 0 0 0 0 0 0 0 0 0 0 0 0 0 0 0 0 0 0 0 0 0 3
0 0 0 0 0 0 0 0 0 0 0 0 0 0 0 0 0 0 0 0 0 0 0 0 0 0 0 0 0 0 0 0 0 0 0 0 0 0 0 0 0 0 0
0 0 0 0 0 0 0 0 0 0 0 0 0 0 0 0 0 0 0 0 0 0 0 0 0 0 0 0 0 0 0 0 0 0 0 0 0 0 0 0 0 0 0
0 0 0 0 0 0 0 0 0 0 0 0 0 0 0 0 0 0 0 0 0 0 0 0 0 0 0 0 0 0 0 0 0 0 0 0 0 0 0 0 0 0 0
0 0 0 0 0 0 0 0 0 0 0 0 0 0 0 0 0 0 0 0 0 0 0 0 0 0 0 0 0 0 0 0 0 0 0 0 0 0 0 0 0 0 0